| time (UTC) | temp F | wind direction | speed knots | gust knots | rain 1hr in | rain 24hr in | rain mn in | humidity % | barometer mb |
| 20260505224125 | 83 | 65 | 0.0 | 0.0 | 0.00 | 0.49 | 0.49 | 85 | 1010.7 |
| 20260505223622 | 82 | 32 | 0.0 | 0.0 | 0.47 | 0.48 | 0.48 | 83 | 1010.7 |
| 20260505223118 | 83 | 59 | 0.0 | 0.0 | 0.00 | 0.46 | 0.46 | 83 | 1010.7 |
| 20260505222615 | 84 | 42 | 0.0 | 0.0 | 0.00 | 0.45 | 0.45 | 81 | 1010.7 |
| 20260505222111 | 84 | 50 | 0.0 | 0.0 | 0.00 | 0.45 | 0.45 | 79 | 1010.7 |
| 20260505221608 | 84 | 35 | 0.0 | 3.5 | 0.00 | 0.45 | 0.45 | 78 | 1010.7 |
| 20260505221104 | 85 | 45 | 0.9 | 1.7 | 0.00 | 0.45 | 0.45 | 78 | 1010.7 |
| 20260505220602 | 85 | 54 | 0.9 | 2.6 | 0.00 | 0.45 | 0.45 | 78 | 1010.7 |
| 20260505220100 | 85 | 56 | 0.0 | 0.0 | 0.00 | 0.45 | 0.45 | 81 | 1010.4 |
| 20260505215558 | 84 | 36 | 0.0 | 0.0 | 0.00 | 0.45 | 0.45 | 81 | 1010.7 |
| 20260505215055 | 85 | 50 | 0.0 | 1.7 | 0.00 | 0.45 | 0.45 | 79 | 1010.7 |
| 20260505214553 | 86 | 131 | 0.0 | 0.0 | 0.00 | 0.45 | 0.45 | 77 | 1010.7 |
| 20260505214050 | 85 | 131 | 0.0 | 0.0 | 0.00 | 0.45 | 0.45 | 78 | 1010.4 |
| 20260505213548 | 85 | 124 | 0.0 | 0.0 | 0.00 | 0.45 | 0.45 | 79 | 1010.4 |
| 20260505213044 | 85 | 67 | 0.0 | 1.7 | 0.00 | 0.45 | 0.45 | 79 | 1010.4 |
| 20260505212540 | 85 | 57 | 0.9 | 1.7 | 0.00 | 0.45 | 0.45 | 77 | 1010.4 |
| 20260505212038 | 85 | 65 | 0.0 | 0.0 | 0.00 | 0.45 | 0.45 | 79 | 1010.4 |
| 20260505211535 | 84 | 69 | 0.0 | 1.7 | 0.00 | 0.45 | 0.45 | 82 | 1010.4 |
| 20260505211031 | 83 | 45 | 0.0 | 0.0 | 0.00 | 0.45 | 0.45 | 85 | 1010.4 |
| 20260505210528 | 82 | 41 | 0.0 | 0.9 | 0.00 | 0.45 | 0.45 | 86 | 1010.4 |
| 20260505210025 | 81 | 47 | 0.0 | 0.0 | 0.00 | 0.45 | 0.45 | 88 | 1010.4 |
| 20260505205523 | 80 | 55 | 0.0 | 0.0 | 0.00 | 0.45 | 0.45 | 89 | 1010.4 |
| 20260505205020 | 80 | 53 | 0.0 | 0.0 | 0.00 | 0.45 | 0.45 | 90 | 1010.4 |
| 20260505204518 | 80 | 52 | 0.0 | 0.0 | 0.00 | 0.45 | 0.45 | 91 | 1010.4 |
| 20260505204015 | 80 | 56 | 0.0 | 0.0 | 0.00 | 0.45 | 0.45 | 91 | 1010.4 |
| 20260505203511 | 79 | 91 | 0.0 | 0.0 | 0.00 | 0.45 | 0.45 | 91 | 1010.7 |
| 20260505203008 | 79 | 46 | 0.0 | 0.0 | 0.00 | 0.45 | 0.45 | 91 | 1010.7 |
| 20260505202504 | 78 | 64 | 0.0 | 0.0 | 0.00 | 0.18 | 0.18 | 91 | 1010.4 |
| 20260505173246 | 78 | 170 | 0.9 | 4.3 | 0.00 | 0.18 | 0.18 | 90 | 1008.7 |
| 20260505172743 | 78 | 170 | 0.9 | 4.3 | 0.00 | 0.18 | 0.18 | 90 | 1008.7 |
| 20260505172240 | 78 | 170 | 0.9 | 4.3 | 0.00 | 0.18 | 0.18 | 90 | 1008.7 |
| 20260505171740 | 78 | 108 | 0.0 | 1.7 | 0.00 | 0.18 | 0.18 | 90 | 1008.7 |
| 20260505171237 | 78 | 108 | 0.0 | 1.7 | 0.00 | 0.18 | 0.18 | 90 | 1008.7 |
| 20260505170734 | 78 | 125 | 0.0 | 3.5 | 0.00 | 0.18 | 0.18 | 90 | 1008.7 |
| 20260505170231 | 78 | 163 | 0.9 | 3.5 | 0.00 | 0.18 | 0.18 | 90 | 1008.7 |
| 20260505165726 | 78 | 194 | 0.9 | 4.3 | 0.00 | 0.18 | 0.18 | 91 | 1009.0 |
| 20260505165222 | 78 | 91 | 0.0 | 0.0 | 0.00 | 0.18 | 0.18 | 92 | 1008.7 |
| 20260505164718 | 78 | 94 | 0.0 | 2.6 | 0.00 | 0.18 | 0.18 | 92 | 1008.7 |
| 20260505164215 | 78 | 306 | 0.9 | 1.7 | 0.00 | 0.18 | 0.18 | 91 | 1008.7 |
| 20260505163713 | 78 | 13 | 0.0 | 0.0 | 0.00 | 0.18 | 0.18 | 91 | 1008.7 |
| 20260505163212 | 78 | 352 | 0.0 | 0.0 | 0.00 | 0.18 | 0.18 | 91 | 1008.7 |
| 20260505162709 | 78 | 78 | 0.0 | 0.0 | 0.00 | 0.18 | 0.18 | 91 | 1008.7 |
| 20260505162206 | 78 | 225 | 0.0 | 2.6 | 0.00 | 0.18 | 0.18 | 91 | 1008.7 |
| 20260505161702 | 77 | 154 | 0.0 | 0.0 | 0.00 | 0.18 | 0.18 | 91 | 1009.0 |
| 20260505161200 | 77 | 74 | 0.0 | 0.0 | 0.00 | 0.18 | 0.18 | 91 | 1009.0 |
| 20260505160658 | 77 | 89 | 0.0 | 0.0 | 0.00 | 0.18 | 0.18 | 91 | 1009.0 |
| 20260505160155 | 77 | 76 | 0.0 | 0.0 | 0.00 | 0.18 | 0.18 | 91 | 1009.0 |
| 20260505153134 | 77 | 114 | 0.0 | 2.6 | 0.00 | 0.18 | 0.18 | 91 | 1009.3 |
| 20260505152631 | 77 | 86 | 0.0 | 0.9 | 0.47 | 0.15 | 0.15 | 91 | 1009.3 |
| 20260505152127 | 77 | 57 | 0.0 | 0.0 | 0.00 | 0.15 | 0.15 | 91 | 1009.3 |
| 20260505151622 | 77 | 74 | 0.0 | 0.0 | 0.00 | 0.15 | 0.15 | 91 | 1009.3 |
| 20260505151120 | 77 | 131 | 0.0 | 0.0 | 0.00 | 0.15 | 0.15 | 90 | 1009.3 |
| 20260505150616 | 77 | 37 | 0.0 | 0.0 | 0.00 | 0.15 | 0.15 | 90 | 1009.3 |
| 20260505150113 | 77 | 50 | 0.0 | 0.9 | 0.00 | 0.15 | 0.15 | 89 | 1009.7 |
| 20260505140541 | 79 | 62 | 0.0 | 0.0 | 0.00 | 0.01 | 0.01 | 91 | 1010.4 |
| 20260505092307 | 80 | 93 | 3.5 | 6.1 | 0.00 | 0.92 | 0.92 | 87 | 1010.0 |
| 20260505091804 | 80 | 93 | 3.5 | 6.1 | 0.00 | 0.92 | 0.92 | 87 | 1010.0 |
| 20260505091302 | 80 | 101 | 3.5 | 7.8 | 0.00 | 0.92 | 0.92 | 87 | 1010.0 |
| 20260505090759 | 80 | 115 | 1.7 | 3.5 | 0.00 | 0.92 | 0.92 | 87 | 1010.0 |
| 20260505090258 | 80 | 106 | 1.7 | 4.3 | 0.00 | 0.92 | 0.92 | 88 | 1009.7 |
| 20260505085754 | 80 | 90 | 4.3 | 7.0 | 0.00 | 0.92 | 0.92 | 88 | 1010.0 |
| 20260505085253 | 80 | 87 | 5.2 | 7.8 | 0.00 | 0.92 | 0.92 | 88 | 1010.0 |
| 20260505084749 | 80 | 101 | 1.7 | 6.1 | 0.00 | 0.92 | 0.92 | 88 | 1010.0 |
| 20260505084244 | 80 | 107 | 0.9 | 4.3 | 0.00 | 0.92 | 0.92 | 88 | 1010.0 |
| 20260505083740 | 80 | 98 | 0.9 | 3.5 | 0.00 | 0.92 | 0.92 | 89 | 1010.0 |
| 20260505083237 | 80 | 111 | 2.6 | 4.3 | 0.00 | 0.92 | 0.92 | 89 | 1010.0 |
| 20260505082733 | 80 | 114 | 3.5 | 9.6 | 0.00 | 0.92 | 0.92 | 88 | 1010.0 |
| 20260505082230 | 80 | 102 | 2.6 | 5.2 | 0.00 | 0.92 | 0.92 | 88 | 1010.0 |
| 20260505081726 | 80 | 106 | 3.5 | 6.1 | 0.00 | 0.92 | 0.92 | 88 | 1010.0 |
| 20260505081224 | 81 | 95 | 1.7 | 7.0 | 0.00 | 0.92 | 0.92 | 88 | 1010.0 |
| 20260505080720 | 80 | 105 | 2.6 | 7.0 | 0.47 | 0.91 | 0.91 | 88 | 1010.0 |
| 20260505080216 | 80 | 106 | 3.5 | 7.0 | 0.00 | 0.91 | 0.91 | 88 | 1010.0 |
| 20260505075712 | 80 | 88 | 3.5 | 7.0 | 0.00 | 0.91 | 0.91 | 88 | 1010.0 |
| 20260505075209 | 80 | 87 | 5.2 | 7.0 | 0.00 | 0.91 | 0.91 | 88 | 1010.0 |
| 20260505074706 | 80 | 96 | 3.5 | 7.8 | 0.00 | 0.91 | 0.91 | 88 | 1010.0 |
| 20260505074203 | 80 | 95 | 0.9 | 3.5 | 0.00 | 0.91 | 0.91 | 89 | 1010.0 |
| 20260505073701 | 80 | 93 | 3.5 | 6.1 | 0.00 | 0.91 | 0.91 | 89 | 1010.0 |
| 20260505073159 | 79 | 92 | 1.7 | 4.3 | 0.00 | 0.91 | 0.91 | 91 | 1010.0 |
| 20260505072654 | 79 | 112 | 0.0 | 0.0 | 0.00 | 0.91 | 0.91 | 91 | 1009.7 |
| 20260505072151 | 79 | 59 | 0.0 | 0.0 | 0.00 | 0.91 | 0.91 | 91 | 1009.7 |
| 20260505071646 | 78 | 68 | 0.0 | 0.0 | 0.00 | 0.91 | 0.91 | 91 | 1009.7 |
| 20260505071144 | 79 | 55 | 0.0 | 0.0 | 0.00 | 0.91 | 0.91 | 91 | 1009.7 |
| 20260505070641 | 79 | 123 | 0.9 | 2.6 | 0.00 | 0.91 | 0.91 | 90 | 1009.7 |
| 20260505070138 | 78 | 159 | 0.0 | 1.7 | 0.00 | 0.91 | 0.91 | 90 | 1009.7 |
| 20260505065633 | 79 | 97 | 0.0 | 1.7 | 0.00 | 0.91 | 0.91 | 90 | 1009.7 |
| 20260505065130 | 79 | 80 | 0.0 | 2.6 | 0.47 | 0.90 | 0.90 | 90 | 1009.7 |
| 20260505064627 | 79 | 105 | 0.0 | 2.6 | 0.00 | 0.90 | 0.90 | 90 | 1009.7 |
| 20260505064126 | 79 | 76 | 0.0 | 0.0 | 0.00 | 0.90 | 0.90 | 90 | 1009.7 |
| 20260505063623 | 79 | 86 | 0.0 | 0.0 | 0.00 | 0.90 | 0.90 | 90 | 1009.3 |
| 20260505063119 | 79 | 60 | 0.0 | 0.0 | 0.00 | 0.90 | 0.90 | 90 | 1009.7 |
| 20260505062615 | 79 | 66 | 0.0 | 0.0 | 0.00 | 0.89 | 0.89 | 90 | 1009.7 |
| 20260505062113 | 79 | 39 | 0.0 | 1.7 | 0.00 | 0.89 | 0.89 | 90 | 1009.7 |
| 20260505061609 | 79 | 81 | 0.0 | 1.7 | 0.00 | 0.89 | 0.89 | 90 | 1009.3 |
| 20260505061108 | 78 | 70 | 0.0 | 0.0 | 0.00 | 0.89 | 0.89 | 89 | 1009.3 |
| 20260505060605 | 78 | 115 | 1.7 | 5.2 | 0.00 | 0.89 | 0.89 | 89 | 1009.3 |
| 20260505055557 | 78 | 83 | 0.0 | 1.7 | 0.00 | 0.88 | 0.88 | 89 | 1009.7 |
| 20260505055054 | 78 | 67 | 0.0 | 0.0 | 0.00 | 0.87 | 0.87 | 89 | 1009.7 |
| 20260505054551 | 78 | 102 | 0.9 | 3.5 | 0.00 | 0.87 | 0.87 | 89 | 1009.7 |
| 20260505054049 | 78 | 65 | 0.0 | 2.6 | 0.00 | 0.86 | 0.86 | 89 | 1009.7 |
| 20260505053546 | 79 | 67 | 0.0 | 2.6 | 0.00 | 0.86 | 0.86 | 89 | 1009.7 |
| 20260505053042 | 78 | 79 | 0.0 | 3.5 | 0.00 | 0.85 | 0.85 | 90 | 1009.7 |
| 20260505052539 | 78 | 125 | 1.7 | 3.5 | 0.47 | 0.84 | 0.84 | 89 | 1009.7 |
| 20260505052037 | 79 | 152 | 2.6 | 6.1 | 0.00 | 0.83 | 0.83 | 89 | 1009.3 |
| 20260505051534 | 79 | 110 | 1.7 | 5.2 | 0.00 | 0.83 | 0.83 | 89 | 1009.3 |
| 20260505051032 | 80 | 131 | 1.7 | 4.3 | 0.00 | 0.83 | 0.83 | 89 | 1009.3 |
| 20260505050530 | 80 | 119 | 1.7 | 5.2 | 0.00 | 0.83 | 0.83 | 88 | 1009.3 |
| 20260505041457 | 80 | 170 | 1.7 | 3.5 | 0.00 | 0.80 | 0.80 | 87 | 1009.0 |
| 20260505040954 | 81 | 144 | 1.7 | 5.2 | 0.00 | 0.79 | 0.79 | 86 | 1009.0 |
| 20260505040452 | 81 | 122 | 0.0 | 0.9 | 0.00 | 0.79 | 0.79 | 86 | 1009.0 |
| 20260505035949 | 82 | 128 | 1.7 | 4.3 | 0.00 | 0.79 | 0.79 | 85 | 1009.0 |
| 20260505035444 | 82 | 144 | 1.7 | 3.5 | 0.00 | 0.79 | 0.79 | 85 | 1009.0 |
| 20260505034942 | 82 | 118 | 0.0 | 2.6 | 0.00 | 0.79 | 0.79 | 84 | 1009.0 |
| 20260505034438 | 83 | 144 | 1.7 | 5.2 | 0.00 | 0.79 | 0.79 | 83 | 1009.0 |
| 20260505033936 | 83 | 34 | 0.0 | 0.0 | 0.00 | 0.79 | 0.79 | 83 | 1009.0 |
| 20260505033432 | 84 | 60 | 0.0 | 0.0 | 0.00 | 0.79 | 0.79 | 83 | 1008.7 |
| 20260505032931 | 84 | 65 | 0.0 | 2.6 | 0.00 | 0.79 | 0.79 | 83 | 1008.7 |
| 20260505032427 | 84 | 91 | 0.0 | 1.7 | 0.00 | 0.79 | 0.79 | 83 | 1009.0 |
| 20260505031924 | 84 | 76 | 0.0 | 0.0 | 0.00 | 0.79 | 0.79 | 82 | 1009.0 |
| 20260505031421 | 84 | 85 | 0.9 | 3.5 | 0.00 | 0.79 | 0.79 | 81 | 1009.0 |
| 20260505030918 | 85 | 85 | 1.7 | 5.2 | 0.00 | 0.79 | 0.79 | 79 | 1009.0 |
| 20260505030413 | 84 | 87 | 0.9 | 3.5 | 0.00 | 0.79 | 0.79 | 80 | 1009.3 |
| 20260505025909 | 84 | 82 | 3.5 | 5.2 | 0.00 | 0.79 | 0.79 | 79 | 1009.3 |
| 20260505025407 | 84 | 88 | 0.9 | 2.6 | 0.00 | 0.79 | 0.79 | 79 | 1009.3 |
| 20260505024906 | 84 | 95 | 3.5 | 4.3 | 0.00 | 0.79 | 0.79 | 79 | 1009.3 |
| 20260505024403 | 84 | 81 | 2.6 | 3.5 | 0.00 | 0.79 | 0.79 | 79 | 1009.3 |
| 20260505023859 | 84 | 68 | 1.7 | 2.6 | 0.00 | 0.79 | 0.79 | 80 | 1009.3 |
| 20260505023357 | 83 | 74 | 2.6 | 3.5 | 0.00 | 0.79 | 0.79 | 80 | 1009.7 |
| 20260505022854 | 83 | 85 | 3.5 | 4.3 | 0.00 | 0.79 | 0.79 | 81 | 1009.7 |
| 20260505022351 | 83 | 84 | 2.6 | 4.3 | 0.00 | 0.79 | 0.79 | 83 | 1009.7 |
| 20260505021848 | 83 | 86 | 4.3 | 5.2 | 0.00 | 0.79 | 0.79 | 84 | 1010.0 |
| 20260505021344 | 83 | 85 | 3.5 | 4.3 | 0.00 | 0.79 | 0.79 | 84 | 1010.0 |
| 20260505020840 | 83 | 84 | 4.3 | 5.2 | 0.00 | 0.79 | 0.79 | 84 | 1010.0 |
| 20260505020336 | 83 | 86 | 3.5 | 5.2 | 0.00 | 0.79 | 0.79 | 84 | 1010.0 |
| 20260505015833 | 83 | 91 | 5.2 | 7.0 | 0.00 | 0.79 | 0.79 | 84 | 1010.4 |
| 20260505015330 | 83 | 93 | 5.2 | 6.1 | 0.00 | 0.79 | 0.79 | 84 | 1010.4 |
| 20260505014827 | 83 | 88 | 5.2 | 7.0 | 0.00 | 0.79 | 0.79 | 85 | 1010.0 |
| 20260505014324 | 83 | 95 | 5.2 | 6.1 | 0.00 | 0.79 | 0.79 | 85 | 1010.4 |
| 20260505013821 | 83 | 94 | 3.5 | 5.2 | 0.00 | 0.79 | 0.79 | 84 | 1010.4 |
| 20260505013318 | 83 | 78 | 2.6 | 2.6 | 0.00 | 0.79 | 0.79 | 83 | 1010.4 |
| 20260505012817 | 83 | 62 | 0.0 | 0.0 | 0.00 | 0.79 | 0.79 | 82 | 1010.4 |
| 20260505012314 | 84 | 56 | 0.0 | 0.0 | 0.00 | 0.79 | 0.79 | 83 | 1010.4 |
| 20260505011809 | 83 | 111 | 0.0 | 0.0 | 0.00 | 0.79 | 0.79 | 82 | 1010.4 |
| 20260505011307 | 83 | 58 | 0.0 | 0.0 | 0.00 | 0.79 | 0.79 | 83 | 1010.7 |
| 20260505010803 | 83 | 73 | 1.7 | 2.6 | 0.00 | 0.79 | 0.79 | 84 | 1010.7 |
| 20260505010259 | 83 | 81 | 0.0 | 0.0 | 0.00 | 0.79 | 0.79 | 85 | 1010.7 |
| 20260505005755 | 83 | 67 | 0.0 | 0.0 | 0.00 | 0.79 | 0.79 | 84 | 1010.7 |
| 20260505005252 | 83 | 248 | 0.9 | 3.5 | 0.00 | 0.79 | 0.79 | 83 | 1010.7 |
| 20260505004749 | 83 | 88 | 0.0 | 0.0 | 0.00 | 0.79 | 0.79 | 82 | 1010.7 |
| 20260505004245 | 83 | 57 | 0.0 | 0.0 | 0.00 | 0.79 | 0.79 | 83 | 1010.4 |
| 20260505003742 | 83 | 63 | 0.0 | 1.7 | 0.00 | 0.79 | 0.79 | 83 | 1010.4 |
| 20260505003240 | 82 | 109 | 0.9 | 2.6 | 0.00 | 0.79 | 0.79 | 85 | 1010.7 |
| 20260505002736 | 82 | 101 | 0.0 | 0.0 | 0.00 | 0.79 | 0.79 | 85 | 1010.4 |
| 20260505002234 | 82 | 127 | 0.9 | 3.5 | 0.00 | 0.79 | 0.79 | 85 | 1010.7 |
| 20260505001731 | 82 | 188 | 3.5 | 7.0 | 0.00 | 0.79 | 0.79 | 86 | 1010.7 |
| 20260505001229 | 82 | 78 | 0.0 | 1.7 | 0.00 | 0.79 | 0.79 | 87 | 1010.7 |
| 20260505000725 | 82 | 107 | 0.0 | 2.6 | 0.00 | 0.79 | 0.79 | 87 | 1010.7 |
| 20260505000226 | 81 | 145 | 1.7 | 4.3 | 0.00 | 0.79 | 0.79 | 86 | 1011.0 |
| 20260504235719 | 82 | 87 | 1.7 | 5.2 | 0.00 | 0.78 | 0.78 | 85 | 1011.0 |
| 20260504235215 | 82 | 78 | 0.0 | 3.5 | 0.00 | 0.78 | 0.78 | 86 | 1011.0 |
| 20260504234713 | 82 | 95 | 0.0 | 2.6 | 0.00 | 0.78 | 0.78 | 86 | 1011.0 |
| 20260504234210 | 82 | 55 | 0.0 | 0.0 | 0.00 | 0.78 | 0.78 | 85 | 1011.4 |
| 20260504233706 | 82 | 139 | 0.0 | 0.0 | 0.00 | 0.78 | 0.78 | 86 | 1011.4 |
| 20260504233202 | 82 | 92 | 0.9 | 3.5 | 0.00 | 0.78 | 0.78 | 86 | 1011.4 |
| 20260504232700 | 82 | 78 | 0.0 | 0.9 | 0.00 | 0.78 | 0.78 | 86 | 1011.4 |
| 20260504232156 | 82 | 105 | 0.0 | 0.0 | 0.00 | 0.78 | 0.78 | 86 | 1011.4 |
| 20260504231653 | 82 | 121 | 0.9 | 3.5 | 0.00 | 0.78 | 0.78 | 87 | 1011.4 |
| 20260504231149 | 82 | 70 | 0.0 | 0.0 | 0.00 | 0.78 | 0.78 | 86 | 1011.4 |
| 20260504230646 | 82 | 104 | 1.7 | 3.5 | 0.00 | 0.78 | 0.78 | 85 | 1011.4 |
| 20260504230145 | 82 | 88 | 2.6 | 7.0 | 0.00 | 0.78 | 0.78 | 85 | 1011.4 |
| 20260504225643 | 82 | 68 | 0.0 | 0.0 | 0.00 | 0.78 | 0.78 | 86 | 1011.4 |
| 20260504225138 | 82 | 46 | 0.0 | 0.0 | 0.00 | 0.78 | 0.78 | 87 | 1011.4 |
| 20260504224635 | 82 | 110 | 0.9 | 5.2 | 0.00 | 0.78 | 0.78 | 88 | 1011.4 |
| 20260504224132 | 82 | 82 | 0.9 | 3.5 | 0.00 | 0.78 | 0.78 | 89 | 1011.4 |